Newark, OH

7:03 AM EST on February 13, 2016 (GMT -0500)
Newark Heath

Weather History for KVTA - November, 2012

Change the Weather History Date:

Saturday, November 17, 2012

  Actual Average Record
Temperature  
Mean Temperature 40 °F -  
Max Temperature 57 °F 51 °F 78 °F (1958)
Min Temperature 24 °F 31 °F 15 °F (1956)
Degree Days  
Heating Degree Days 24    
Moisture  
Dew Point 27 °F    
Average Humidity 71    
Maximum Humidity 92    
Minimum Humidity 36    
Precipitation  
Precipitation 0.00 in - - ()
Sea Level Pressure  
Sea Level Pressure 30.54 in    
Wind  
Wind Speed 2 mph (NE)    
Max Wind Speed 10 mph    
Max Gust Speed 16 mph    
Visibility 7 miles    
Events      
Averages and records for this station are not official NWS values.
T = Trace of Precipitation, MM = Missing Value Source: NWS Daily Summary

Daily Weather History Graph

Daily Weather History Graph

Search for Another Location

Airport or City:

Trip Planner

Search our weather history database for the weather conditions in past years. The results will help you decide how hot, cold, wet, or windy it might be!

Date:

Astronomy

Nov. 17, 2012 Rise Set
Actual Time 7:17 AM EST 5:11 PM EST
Civil Twilight 6:48 AM EST 5:40 PM EST
Nautical Twilight 6:15 AM EST 6:13 PM EST
Astronomical Twilight 5:43 AM EST 6:45 PM EST
Moon 11:01 AM EST (11/17) 9:20 PM EST (11/17)
Length of Visible Light 10h 52m
Length of Day
9h 53m
Waxing Crescent, 20% of the Moon is Illuminated
Nov 17
Waxing Crescent
Nov 20
First Quarter
Nov 28
Full
Dec 6
Last Quarter
Dec 13
New

Hourly Weather History & Observations

Time (EST) Temp. Windchill Dew Point Humidity Pressure Visibility Wind Dir Wind Speed Gust Speed Precip Events Conditions
12:54 AM 27.0 °F - 25.0 °F 92% 30.52 in 6.0 mi Calm Calm - N/A   Clear
1:54 AM 26.1 °F - 24.1 °F 92% 30.52 in 4.0 mi Calm Calm - N/A   Clear
2:54 AM 27.0 °F - 25.0 °F 92% 30.52 in 5.0 mi Calm Calm - N/A   Clear
3:54 AM 26.1 °F - 24.1 °F 92% 30.52 in 4.0 mi Calm Calm - N/A   Clear
4:54 AM 27.0 °F - 23.0 °F 85% 30.53 in 5.0 mi Calm Calm - N/A   Clear
5:54 AM 25.0 °F - 23.0 °F 92% 30.55 in 4.0 mi Calm Calm - N/A   Clear
6:54 AM 25.0 °F - 21.0 °F 85% 30.57 in 5.0 mi Calm Calm - N/A   Clear
7:20 AM 24.8 °F - 21.2 °F 86% 30.54 in 1.8 mi Calm Calm - N/A   Clear
7:33 AM 24.8 °F - 21.2 °F 86% 30.55 in 2.0 mi Calm Calm - N/A   Clear
7:54 AM 25.0 °F - 21.9 °F 88% 30.58 in 3.0 mi Calm Calm - N/A   Clear
8:54 AM 34.0 °F 31.0 °F 30.0 °F 85% 30.60 in 3.0 mi NE 3.5 mph - N/A   Clear
9:54 AM 41.0 °F 36.4 °F 32.0 °F 70% 30.61 in 6.0 mi Variable 6.9 mph - N/A   Haze
10:54 AM 46.9 °F - 30.9 °F 54% 30.60 in 10.0 mi ENE 6.9 mph - N/A   Clear
11:54 AM 52.0 °F - 32.0 °F 47% 30.58 in 10.0 mi NNE 4.6 mph - N/A   Clear
12:54 PM 55.9 °F - 30.0 °F 37% 30.55 in 10.0 mi Variable 4.6 mph - N/A   Clear
1:54 PM 57.0 °F - 30.9 °F 37% 30.53 in 10.0 mi East 8.1 mph - N/A   Clear
2:54 PM 57.0 °F - 30.0 °F 36% 30.51 in 10.0 mi NE 8.1 mph 16.1 mph N/A   Clear
3:54 PM 55.9 °F - 30.0 °F 37% 30.51 in 10.0 mi East 10.4 mph - N/A   Clear
4:54 PM 54.0 °F - 28.9 °F 38% 30.52 in 10.0 mi ENE 4.6 mph - N/A   Clear
5:54 PM 51.1 °F - 28.0 °F 41% 30.52 in 10.0 mi Calm Calm - N/A   Clear
6:54 PM 41.0 °F - 28.0 °F 60% 30.53 in 10.0 mi Calm Calm - N/A   Clear
7:54 PM 37.0 °F - 28.9 °F 73% 30.54 in 10.0 mi Calm Calm - N/A   Clear
8:54 PM 34.0 °F - 28.0 °F 79% 30.54 in 10.0 mi Calm Calm - N/A   Clear
9:54 PM 30.9 °F 27.5 °F 26.1 °F 82% 30.53 in 10.0 mi NNE 3.5 mph - N/A   Clear
10:54 PM 30.0 °F - 26.1 °F 85% 30.51 in 10.0 mi Calm Calm - N/A   Clear
11:54 PM 28.9 °F - 25.0 °F 85% 30.50 in 8.0 mi Calm Calm - N/A   Clear